Time,TemperatureF,DewpointF,PressureIn,WindDirection,WindDirectionDegrees,WindSpeedMPH,WindSpeedGustMPH,Humidity,HourlyPrecipIn,Conditions,Clouds,dailyrainin,SolarRadiationWatts/m^2,SoftwareType,DateUTC
2013-02-21 00:00:00,32.9,24.2,30.18,NNE,30,5.0,8.0,70,0.00,,,0.00,0.00,VWS V14.01,2013-02-21 06:00:00,
2013-02-21 00:05:00,33.0,24.3,30.18,NE,48,0.0,5.0,70,0.00,,,0.00,0.00,VWS V14.01,2013-02-21 06:05:00,
2013-02-21 00:10:00,33.0,24.3,30.18,NNE,30,0.0,4.0,70,0.00,,,0.00,0.00,VWS V14.01,2013-02-21 06:10:00,
2013-02-21 00:15:00,33.1,24.0,30.18,East,82,3.0,5.0,69,0.00,,,0.00,0.00,VWS V14.01,2013-02-21 06:15:00,
2013-02-21 00:20:00,33.2,24.1,30.18,NE,52,0.0,4.0,69,0.00,,,0.00,0.00,VWS V14.01,2013-02-21 06:20:00,
2013-02-21 00:25:00,33.2,24.1,30.18,ENE,75,1.0,7.0,69,0.00,,,0.00,0.00,VWS V14.01,2013-02-21 06:25:00,
2013-02-21 00:30:00,33.3,23.9,30.18,East,79,1.0,5.0,68,0.00,,,0.00,0.00,VWS V14.01,2013-02-21 06:30:00,
2013-02-21 00:35:00,33.4,24.0,30.18,East,84,2.0,7.0,68,0.00,,,0.00,0.00,VWS V14.01,2013-02-21 06:35:00,
2013-02-21 00:40:00,33.4,23.6,30.18,ENE,78,2.0,5.0,67,0.00,,,0.00,0.00,VWS V14.01,2013-02-21 06:40:00,
2013-02-21 00:45:00,33.4,23.6,30.18,East,84,2.0,8.0,67,0.00,,,0.00,0.00,VWS V14.01,2013-02-21 06:45:00,
2013-02-21 00:50:00,33.5,23.7,30.17,ENE,78,2.0,3.0,67,0.00,,,0.00,0.00,VWS V14.01,2013-02-21 06:50:00,
2013-02-21 00:55:00,33.5,23.4,30.17,ENE,75,2.0,6.0,66,0.00,,,0.00,0.00,VWS V14.01,2013-02-21 06:55:00,
2013-02-21 01:00:00,33.6,23.5,30.17,ENE,74,4.0,5.0,66,0.00,,,0.00,0.00,VWS V14.01,2013-02-21 07:00:00,
2013-02-21 01:05:00,33.6,23.5,30.17,East,81,5.0,8.0,66,0.00,,,0.00,0.00,VWS V14.01,2013-02-21 07:05:00,
2013-02-21 01:10:00,33.6,23.5,30.17,ENE,69,7.0,8.0,66,0.00,,,0.00,0.00,VWS V14.01,2013-02-21 07:10:00,
2013-02-21 01:15:00,33.7,23.6,30.17,ENE,77,8.0,8.0,66,0.00,,,0.00,0.00,VWS V14.01,2013-02-21 07:15:00,
2013-02-21 01:20:00,33.7,23.2,30.17,East,85,1.0,5.0,65,0.00,,,0.00,0.00,VWS V14.01,2013-02-21 07:20:00,
2013-02-21 01:25:00,33.7,23.6,30.17,ENE,75,1.0,7.0,66,0.00,,,0.00,0.00,VWS V14.01,2013-02-21 07:25:00,
2013-02-21 01:30:00,33.7,23.2,30.17,East,99,2.0,3.0,65,0.00,,,0.00,0.00,VWS V14.01,2013-02-21 07:30:00,
2013-02-21 01:35:00,33.7,23.6,30.16,East,88,3.0,7.0,66,0.00,,,0.00,0.00,VWS V14.01,2013-02-21 07:35:00,
2013-02-21 01:40:00,33.7,23.6,30.16,ENE,69,1.0,2.0,66,0.00,,,0.00,0.00,VWS V14.01,2013-02-21 07:40:00,
2013-02-21 01:45:00,33.7,23.6,30.16,ENE,74,3.0,9.0,66,0.00,,,0.00,0.00,VWS V14.01,2013-02-21 07:45:00,
2013-02-21 01:50:00,33.7,23.6,30.16,East,79,1.0,3.0,66,0.00,,,0.00,0.00,VWS V14.01,2013-02-21 07:50:00,
2013-02-21 01:55:00,33.7,23.2,30.16,ENE,76,2.0,8.0,65,0.00,,,0.00,0.00,VWS V14.01,2013-02-21 07:55:00,
2013-02-21 02:00:00,33.7,23.2,30.16,East,79,3.0,7.0,65,0.00,,,0.00,0.00,VWS V14.01,2013-02-21 08:00:00,
2013-02-21 02:05:00,33.8,23.3,30.16,ENE,78,2.0,7.0,65,0.00,,,0.00,0.00,VWS V14.01,2013-02-21 08:05:00,
2013-02-21 02:10:00,33.8,22.9,30.16,East,79,3.0,6.0,64,0.00,,,0.00,0.00,VWS V14.01,2013-02-21 08:10:00,
2013-02-21 02:15:00,33.9,23.4,30.17,East,83,1.0,7.0,65,0.00,,,0.00,0.00,VWS V14.01,2013-02-21 08:15:00,
2013-02-21 02:20:00,33.9,23.4,30.18,East,80,3.0,3.0,65,0.00,,,0.00,0.00,VWS V14.01,2013-02-21 08:20:00,
2013-02-21 02:25:00,33.9,23.4,30.17,ENE,78,1.0,6.0,65,0.00,,,0.00,0.00,VWS V14.01,2013-02-21 08:25:00,
2013-02-21 02:30:00,33.9,23.4,30.16,East,91,5.0,6.0,65,0.00,,,0.00,0.00,VWS V14.01,2013-02-21 08:30:00,
2013-02-21 02:35:00,33.9,23.8,30.17,East,91,3.0,6.0,66,0.00,,,0.00,0.00,VWS V14.01,2013-02-21 08:35:00,
2013-02-21 02:40:00,33.8,24.0,30.16,East,91,1.0,2.0,67,0.00,,,0.00,0.00,VWS V14.01,2013-02-21 08:40:00,
2013-02-21 02:45:00,33.7,23.9,30.16,ENE,74,3.0,5.0,67,0.00,,,0.00,0.00,VWS V14.01,2013-02-21 08:45:00,
2013-02-21 02:50:00,33.6,24.2,30.16,NNE,26,0.0,1.0,68,0.00,,,0.00,0.00,VWS V14.01,2013-02-21 08:50:00,
2013-02-21 02:55:00,33.5,24.8,30.16,NNE,26,0.0,4.0,70,0.00,,,0.00,0.00,VWS V14.01,2013-02-21 08:55:00,
2013-02-21 03:00:00,33.4,25.0,30.16,NE,36,0.0,4.0,71,0.00,,,0.00,0.00,VWS V14.01,2013-02-21 09:00:00,
2013-02-21 03:03:00,33.3,24.9,30.16,NE,36,1.0,1.0,71,0.00,,,0.00,0.00,VWS V14.01,2013-02-21 09:03:00,
2013-02-21 03:08:00,33.1,25.1,30.16,NNE,21,3.0,6.0,72,0.00,,,0.00,0.00,VWS V14.01,2013-02-21 09:08:00,
2013-02-21 03:13:00,33.0,25.3,30.16,NE,38,2.0,4.0,73,0.00,,,0.00,0.00,VWS V14.01,2013-02-21 09:13:00,
2013-02-21 03:18:00,32.8,25.4,30.16,NE,48,1.0,5.0,74,0.00,,,0.00,0.00,VWS V14.01,2013-02-21 09:18:00,
2013-02-21 03:23:00,32.8,25.1,30.16,East,81,1.0,6.0,73,0.00,,,0.00,0.00,VWS V14.01,2013-02-21 09:23:00,
2013-02-21 03:28:00,32.8,25.1,30.15,ENE,76,5.0,7.0,73,0.00,,,0.00,0.00,VWS V14.01,2013-02-21 09:28:00,
2013-02-21 03:33:00,32.8,25.1,30.14,ENE,58,3.0,6.0,73,0.00,,,0.00,0.00,VWS V14.01,2013-02-21 09:33:00,
2013-02-21 03:38:00,32.8,25.1,30.13,ENE,63,4.0,9.0,73,0.00,,,0.00,0.00,VWS V14.01,2013-02-21 09:38:00,
2013-02-21 03:43:00,32.8,25.1,30.13,ENE,67,5.0,9.0,73,0.00,,,0.00,0.00,VWS V14.01,2013-02-21 09:43:00,
2013-02-21 03:48:00,32.8,24.8,30.13,East,84,5.0,9.0,72,0.00,,,0.00,0.00,VWS V14.01,2013-02-21 09:48:00,
2013-02-21 03:53:00,32.8,24.8,30.13,ENE,74,2.0,8.0,72,0.00,,,0.00,0.00,VWS V14.01,2013-02-21 09:53:00,
2013-02-21 03:58:00,32.9,24.5,30.12,ENE,72,5.0,11.0,71,0.00,,,0.00,0.00,VWS V14.01,2013-02-21 09:58:00,
2013-02-21 04:03:00,32.9,24.5,30.13,East,80,6.0,10.0,71,0.00,,,0.00,0.00,VWS V14.01,2013-02-21 10:03:00,
2013-02-21 04:08:00,33.0,24.3,30.12,East,88,7.0,11.0,70,0.00,,,0.00,0.00,VWS V14.01,2013-02-21 10:08:00,
2013-02-21 04:13:00,33.0,24.3,30.12,ENE,78,7.0,9.0,70,0.00,,,0.00,0.00,VWS V14.01,2013-02-21 10:13:00,
2013-02-21 04:18:00,33.1,24.0,30.12,ENE,71,4.0,9.0,69,0.00,,,0.00,0.00,VWS V14.01,2013-02-21 10:18:00,
2013-02-21 04:23:00,33.1,24.0,30.12,East,86,5.0,13.0,69,0.00,,,0.00,0.00,VWS V14.01,2013-02-21 10:23:00,
2013-02-21 04:28:00,33.2,24.1,30.11,ENE,72,5.0,13.0,69,0.00,,,0.00,0.00,VWS V14.01,2013-02-21 10:28:00,
2013-02-21 04:33:00,33.2,24.1,30.11,ENE,71,5.0,9.0,69,0.00,,,0.00,0.00,VWS V14.01,2013-02-21 10:33:00,
2013-02-21 04:38:00,33.2,23.8,30.11,ENE,67,10.0,13.0,68,0.00,,,0.00,0.00,VWS V14.01,2013-02-21 10:38:00,
2013-02-21 04:43:00,33.3,23.9,30.11,East,89,6.0,11.0,68,0.00,,,0.00,0.00,VWS V14.01,2013-02-21 10:43:00,
2013-02-21 04:48:00,33.3,23.9,30.12,ENE,69,5.0,11.0,68,0.00,,,0.00,0.00,VWS V14.01,2013-02-21 10:48:00,
2013-02-21 04:53:00,33.3,23.5,30.11,East,82,5.0,9.0,67,0.00,,,0.00,0.00,VWS V14.01,2013-02-21 10:53:00,
2013-02-21 04:58:00,33.3,23.9,30.11,East,88,6.0,9.0,68,0.00,,,0.00,0.00,VWS V14.01,2013-02-21 10:58:00,
2013-02-21 05:03:00,33.3,23.5,30.10,East,81,6.0,10.0,67,0.00,,,0.00,0.00,VWS V14.01,2013-02-21 11:03:00,
2013-02-21 05:08:00,33.3,23.5,30.11,ENE,77,4.0,10.0,67,0.00,,,0.00,0.00,VWS V14.01,2013-02-21 11:08:00,
2013-02-21 05:13:00,33.4,24.0,30.11,ENE,78,3.0,7.0,68,0.00,,,0.00,0.00,VWS V14.01,2013-02-21 11:13:00,
2013-02-21 05:18:00,33.4,23.6,30.11,ENE,78,5.0,8.0,67,0.00,,,0.00,0.00,VWS V14.01,2013-02-21 11:18:00,
2013-02-21 05:23:00,33.5,23.7,30.12,East,79,3.0,11.0,67,0.00,,,0.00,0.00,VWS V14.01,2013-02-21 11:23:00,
2013-02-21 05:28:00,33.5,23.4,30.11,East,82,3.0,11.0,66,0.00,,,0.00,0.00,VWS V14.01,2013-02-21 11:28:00,
2013-02-21 05:33:00,33.5,23.4,30.11,East,101,6.0,11.0,66,0.00,,,0.00,0.00,VWS V14.01,2013-02-21 11:33:00,
2013-02-21 05:38:00,33.5,23.4,30.11,ESE,121,3.0,11.0,66,0.00,,,0.00,0.00,VWS V14.01,2013-02-21 11:38:00,
2013-02-21 05:43:00,33.5,23.7,30.11,East,91,3.0,10.0,67,0.00,,,0.00,0.00,VWS V14.01,2013-02-21 11:43:00,
2013-02-21 05:48:00,33.6,23.8,30.11,ENE,67,5.0,10.0,67,0.00,,,0.00,0.00,VWS V14.01,2013-02-21 11:48:00,
2013-02-21 05:53:00,33.6,23.5,30.10,ENE,68,5.0,11.0,66,0.00,,,0.00,0.00,VWS V14.01,2013-02-21 11:53:00,
2013-02-21 05:57:00,33.6,23.5,30.10,East,101,5.0,13.0,66,0.00,,,0.00,0.00,VWS V14.01,2013-02-21 11:57:00,
2013-02-21 06:03:00,33.7,23.6,30.09,ENE,69,8.0,10.0,66,0.00,,,0.00,0.00,VWS V14.01,2013-02-21 12:03:00,
2013-02-21 06:08:00,33.7,23.6,30.09,ESE,109,7.0,13.0,66,0.00,,,0.00,0.00,VWS V14.01,2013-02-21 12:08:00,
2013-02-21 06:13:00,33.7,23.6,30.09,East,83,8.0,11.0,66,0.00,,,0.00,0.00,VWS V14.01,2013-02-21 12:13:00,
2013-02-21 06:18:00,33.7,23.6,30.10,SE,126,4.0,11.0,66,0.00,,,0.00,0.00,VWS V14.01,2013-02-21 12:18:00,
2013-02-21 06:23:00,33.8,24.0,30.10,East,96,5.0,8.0,67,0.00,,,0.00,0.00,VWS V14.01,2013-02-21 12:23:00,
2013-02-21 06:27:00,33.8,24.0,30.10,ESE,103,4.0,9.0,67,0.00,,,0.00,0.00,VWS V14.01,2013-02-21 12:27:00,
2013-02-21 06:32:00,33.8,23.7,30.10,East,84,2.0,10.0,66,0.00,,,0.00,0.00,VWS V14.01,2013-02-21 12:32:00,
2013-02-21 06:37:00,33.8,23.7,30.09,East,91,8.0,15.0,66,0.00,,,0.00,0.00,VWS V14.01,2013-02-21 12:37:00,
2013-02-21 06:42:00,33.8,23.7,30.09,East,96,7.0,10.0,66,0.00,,,0.00,0.00,VWS V14.01,2013-02-21 12:42:00,
2013-02-21 06:47:00,33.8,23.7,30.09,East,96,6.0,16.0,66,0.00,,,0.00,5.00,VWS V14.01,2013-02-21 12:47:00,
2013-02-21 06:52:00,33.8,23.7,30.09,East,85,6.0,11.0,66,0.00,,,0.00,11.00,VWS V14.01,2013-02-21 12:52:00,
2013-02-21 06:57:00,33.8,24.0,30.08,East,83,7.0,11.0,67,0.00,,,0.00,19.00,VWS V14.01,2013-02-21 12:57:00,
2013-02-21 07:03:00,33.8,24.0,30.08,ESE,110,11.0,11.0,67,0.00,,,0.00,23.00,VWS V14.01,2013-02-21 13:03:00,
2013-02-21 07:08:00,33.9,24.1,30.08,SE,128,9.0,13.0,67,0.00,,,0.00,23.00,VWS V14.01,2013-02-21 13:08:00,
2013-02-21 07:12:00,33.9,24.1,30.08,East,88,5.0,11.0,67,0.00,,,0.00,21.00,VWS V14.01,2013-02-21 13:12:00,
2013-02-21 07:18:00,34.0,24.2,30.08,ESE,106,7.0,14.0,67,0.00,,,0.00,23.00,VWS V14.01,2013-02-21 13:18:00,
2013-02-21 07:23:00,34.1,24.3,30.08,ESE,113,9.0,14.0,67,0.00,,,0.00,21.00,VWS V14.01,2013-02-21 13:23:00,
2013-02-21 07:28:00,34.1,24.3,30.08,SE,138,8.0,14.0,67,0.00,,,0.00,28.00,VWS V14.01,2013-02-21 13:28:00,
2013-02-21 07:33:00,34.2,24.4,30.08,East,99,10.0,12.0,67,0.00,,,0.00,33.00,VWS V14.01,2013-02-21 13:33:00,
2013-02-21 07:38:00,34.3,24.5,30.07,ESE,121,9.0,12.0,67,0.00,,,0.00,42.00,VWS V14.01,2013-02-21 13:38:00,
2013-02-21 07:43:00,34.4,24.6,30.07,ESE,107,8.0,11.0,67,0.00,,,0.00,49.00,VWS V14.01,2013-02-21 13:43:00,
2013-02-21 07:48:00,34.4,24.6,30.07,East,96,3.0,14.0,67,0.00,,,0.00,62.00,VWS V14.01,2013-02-21 13:48:00,
2013-02-21 07:53:00,34.4,24.6,30.07,ESE,117,8.0,12.0,67,0.00,,,0.00,88.00,VWS V14.01,2013-02-21 13:53:00,
2013-02-21 07:57:00,34.5,24.7,30.07,ESE,111,9.0,14.0,67,0.00,,,0.00,88.00,VWS V14.01,2013-02-21 13:57:00,
2013-02-21 08:03:00,34.8,24.6,30.07,ESE,109,8.0,12.0,66,0.00,,,0.00,77.00,VWS V14.01,2013-02-21 14:03:00,
2013-02-21 08:08:00,35.0,25.2,30.05,East,92,9.0,13.0,67,0.00,,,0.00,98.00,VWS V14.01,2013-02-21 14:08:00,
2013-02-21 08:13:00,35.2,25.4,30.05,East,84,6.0,10.0,67,0.00,,,0.00,100.00,VWS V14.01,2013-02-21 14:13:00,
2013-02-21 08:18:00,35.3,25.1,30.04,ESE,114,10.0,13.0,66,0.00,,,0.00,130.00,VWS V14.01,2013-02-21 14:18:00,
2013-02-21 08:23:00,35.5,25.3,30.04,ESE,115,11.0,15.0,66,0.00,,,0.00,132.00,VWS V14.01,2013-02-21 14:23:00,
2013-02-21 08:28:00,35.7,25.5,30.05,ESE,111,5.0,15.0,66,0.00,,,0.00,93.00,VWS V14.01,2013-02-21 14:28:00,
2013-02-21 08:33:00,35.8,25.6,30.05,ESE,111,5.0,14.0,66,0.00,,,0.00,62.00,VWS V14.01,2013-02-21 14:33:00,
2013-02-21 08:38:00,36.0,25.4,30.05,ESE,106,8.0,14.0,65,0.00,,,0.00,74.00,VWS V14.01,2013-02-21 14:38:00,
2013-02-21 08:43:00,36.2,25.2,30.05,ESE,107,5.0,13.0,64,0.00,,,0.00,88.00,VWS V14.01,2013-02-21 14:43:00,
2013-02-21 08:48:00,36.5,25.5,30.05,ESE,119,7.0,13.0,64,0.00,,,0.00,90.00,VWS V14.01,2013-02-21 14:48:00,
2013-02-21 08:53:00,36.8,25.0,30.05,East,89,5.0,14.0,62,0.00,,,0.00,76.00,VWS V14.01,2013-02-21 14:53:00,
2013-02-21 08:58:00,36.9,25.1,30.04,East,90,7.0,14.0,62,0.00,,,0.00,84.00,VWS V14.01,2013-02-21 14:58:00,
2013-02-21 09:02:00,37.0,24.8,30.04,ESE,117,8.0,14.0,61,0.00,,,0.00,97.00,VWS V14.01,2013-02-21 15:02:00,
2013-02-21 09:07:00,37.2,25.4,30.03,ESE,117,9.0,14.0,62,0.00,,,0.00,90.00,VWS V14.01,2013-02-21 15:07:00,
2013-02-21 09:12:00,37.3,25.1,30.01,ESE,106,8.0,14.0,61,0.00,,,0.00,107.00,VWS V14.01,2013-02-21 15:12:00,
2013-02-21 09:17:00,37.5,25.7,30.01,East,90,7.0,14.0,62,0.00,,,0.00,125.00,VWS V14.01,2013-02-21 15:17:00,
2013-02-21 09:22:00,37.6,25.8,30.01,ESE,111,13.0,13.0,62,0.00,,,0.00,100.00,VWS V14.01,2013-02-21 15:22:00,
2013-02-21 09:27:00,37.6,25.4,30.00,ESE,110,10.0,14.0,61,0.00,,,0.00,100.00,VWS V14.01,2013-02-21 15:27:00,
2013-02-21 09:32:00,37.9,26.1,29.99,ESE,102,10.0,10.0,62,0.00,,,0.00,125.00,VWS V14.01,2013-02-21 15:32:00,
2013-02-21 09:37:00,38.2,25.5,29.97,ESE,103,9.0,15.0,60,0.00,,,0.00,195.00,VWS V14.01,2013-02-21 15:37:00,
2013-02-21 09:42:00,38.5,25.4,29.97,SE,124,8.0,15.0,59,0.00,,,0.00,179.00,VWS V14.01,2013-02-21 15:42:00,
2013-02-21 09:47:00,38.8,25.7,29.98,East,93,7.0,15.0,59,0.00,,,0.00,155.00,VWS V14.01,2013-02-21 15:47:00,
2013-02-21 09:52:00,39.0,26.7,29.98,ESE,117,8.0,13.0,61,0.00,,,0.00,192.00,VWS V14.01,2013-02-21 15:52:00,
2013-02-21 09:57:00,39.4,25.9,29.98,ESE,113,4.0,13.0,58,0.00,,,0.00,142.00,VWS V14.01,2013-02-21 15:57:00,
2013-02-21 10:02:00,39.7,25.7,29.97,ESE,122,13.0,13.0,57,0.00,,,0.00,171.00,VWS V14.01,2013-02-21 16:02:00,
2013-02-21 10:07:00,39.8,25.0,29.94,ESE,106,11.0,16.0,55,0.00,,,0.00,221.00,VWS V14.01,2013-02-21 16:07:00,
2013-02-21 10:12:00,40.3,25.9,29.93,East,90,8.0,13.0,56,0.00,,,0.00,193.00,VWS V14.01,2013-02-21 16:12:00,
2013-02-21 10:17:00,40.2,25.3,29.92,ESE,111,10.0,17.0,55,0.00,,,0.00,167.00,VWS V14.01,2013-02-21 16:17:00,
2013-02-21 10:22:00,40.5,25.6,29.91,East,90,8.0,15.0,55,0.01,,,0.01,162.00,VWS V14.01,2013-02-21 16:22:00,
2013-02-21 10:27:00,40.6,25.7,29.91,ESE,117,7.0,15.0,55,0.01,,,0.01,148.00,VWS V14.01,2013-02-21 16:27:00,
2013-02-21 10:32:00,40.8,25.5,29.90,ESE,115,12.0,16.0,54,0.01,,,0.01,123.00,VWS V14.01,2013-02-21 16:32:00,
2013-02-21 10:37:00,40.9,25.5,29.88,ESE,111,10.0,16.0,54,0.01,,,0.01,155.00,VWS V14.01,2013-02-21 16:37:00,
2013-02-21 10:42:00,41.3,25.9,29.90,ESE,111,15.0,15.0,54,0.01,,,0.01,109.00,VWS V14.01,2013-02-21 16:42:00,
2013-02-21 10:47:00,41.6,25.3,29.91,East,101,7.0,16.0,52,0.01,,,0.01,79.00,VWS V14.01,2013-02-21 16:47:00,
2013-02-21 10:52:00,41.8,25.0,29.92,ESE,123,5.0,14.0,51,0.01,,,0.01,65.00,VWS V14.01,2013-02-21 16:52:00,
2013-02-21 10:57:00,42.0,25.2,29.92,ESE,118,10.0,14.0,51,0.01,,,0.01,98.00,VWS V14.01,2013-02-21 16:57:00,
2013-02-21 11:02:00,42.1,25.3,29.91,ESE,119,11.0,14.0,51,0.01,,,0.01,53.00,VWS V14.01,2013-02-21 17:02:00,
2013-02-21 11:07:00,42.2,25.4,29.90,ESE,103,9.0,15.0,51,0.01,,,0.01,51.00,VWS V14.01,2013-02-21 17:07:00,
2013-02-21 11:12:00,42.3,25.0,29.88,SE,124,5.0,15.0,50,0.01,,,0.01,65.00,VWS V14.01,2013-02-21 17:12:00,
2013-02-21 11:17:00,42.5,25.2,29.89,ESE,115,8.0,15.0,50,0.01,,,0.01,39.00,VWS V14.01,2013-02-21 17:17:00,
2013-02-21 11:22:00,42.7,25.4,29.88,ESE,108,11.0,14.0,50,0.01,,,0.01,26.00,VWS V14.01,2013-02-21 17:22:00,
2013-02-21 11:27:00,42.8,25.0,29.84,SE,144,9.0,19.0,49,0.01,,,0.01,19.00,VWS V14.01,2013-02-21 17:27:00,
2013-02-21 11:32:00,42.8,25.9,29.82,ESE,105,12.0,16.0,51,0.00,,,0.01,19.00,VWS V14.01,2013-02-21 17:32:00,
2013-02-21 11:37:00,43.0,26.1,29.85,ESE,109,12.0,16.0,51,0.00,,,0.01,16.00,VWS V14.01,2013-02-21 17:37:00,
2013-02-21 11:42:00,43.4,25.5,29.85,ESE,115,14.0,16.0,49,0.00,,,0.01,11.00,VWS V14.01,2013-02-21 17:42:00,
2013-02-21 11:47:00,43.5,26.1,29.85,ESE,112,12.0,16.0,50,0.00,,,0.01,9.00,VWS V14.01,2013-02-21 17:47:00,
2013-02-21 11:52:00,43.7,26.3,29.87,East,99,6.0,13.0,50,0.00,,,0.01,7.00,VWS V14.01,2013-02-21 17:52:00,
2013-02-21 11:57:00,43.9,27.0,29.89,East,99,5.0,13.0,51,0.00,,,0.01,7.00,VWS V14.01,2013-02-21 17:57:00,
2013-02-21 12:02:00,43.7,29.0,29.91,ESE,120,2.0,3.0,56,0.01,,,0.02,0.00,VWS V14.01,2013-02-21 18:02:00,
2013-02-21 12:07:00,43.0,30.1,29.91,ESE,120,4.0,5.0,60,0.03,,,0.04,5.00,VWS V14.01,2013-02-21 18:07:00,
2013-02-21 12:12:00,42.5,30.4,29.89,ESE,109,5.0,8.0,62,0.04,,,0.05,7.00,VWS V14.01,2013-02-21 18:12:00,
2013-02-21 12:17:00,42.0,31.1,29.89,ESE,115,4.0,8.0,65,0.05,,,0.06,5.00,VWS V14.01,2013-02-21 18:17:00,
2013-02-21 12:22:00,41.4,31.6,29.89,SE,125,4.0,6.0,68,0.07,,,0.08,0.00,VWS V14.01,2013-02-21 18:22:00,
2013-02-21 12:27:00,40.9,31.9,29.84,ESE,119,5.0,7.0,70,0.08,,,0.09,7.00,VWS V14.01,2013-02-21 18:27:00,
2013-02-21 12:32:00,40.4,32.4,29.86,ESE,117,3.0,8.0,73,0.10,,,0.11,5.00,VWS V14.01,2013-02-21 18:32:00,
2013-02-21 12:37:00,40.1,32.8,29.85,East,80,2.0,8.0,75,0.11,,,0.12,7.00,VWS V14.01,2013-02-21 18:37:00,
2013-02-21 12:42:00,39.8,32.5,29.88,East,80,1.0,3.0,75,0.12,,,0.13,12.00,VWS V14.01,2013-02-21 18:42:00,
2013-02-21 12:47:00,39.7,33.1,29.88,East,80,0.0,3.0,77,0.13,,,0.14,12.00,VWS V14.01,2013-02-21 18:47:00,
2013-02-21 12:52:00,39.7,33.4,29.90,East,81,3.0,3.0,78,0.14,,,0.15,9.00,VWS V14.01,2013-02-21 18:52:00,
2013-02-21 12:57:00,39.7,33.7,29.91,East,80,0.0,3.0,79,0.17,,,0.18,9.00,VWS V14.01,2013-02-21 18:57:00,
2013-02-21 13:02:00,39.6,34.0,29.89,East,81,0.0,0.0,80,0.20,,,0.22,7.00,VWS V14.01,2013-02-21 19:02:00,
2013-02-21 13:07:00,39.3,34.0,29.89,East,80,0.0,0.0,81,0.24,,,0.26,5.00,VWS V14.01,2013-02-21 19:07:00,
2013-02-21 13:12:00,39.1,34.1,29.88,East,81,2.0,3.0,82,0.25,,,0.29,5.00,VWS V14.01,2013-02-21 19:12:00,
2013-02-21 13:17:00,38.8,34.1,29.86,East,80,1.0,3.0,83,0.26,,,0.30,5.00,VWS V14.01,2013-02-21 19:17:00,
2013-02-21 13:22:00,38.5,34.1,29.88,NE,56,2.0,4.0,84,0.25,,,0.32,5.00,VWS V14.01,2013-02-21 19:22:00,
2013-02-21 13:27:00,38.4,34.0,29.86,NNE,21,1.0,5.0,84,0.25,,,0.32,11.00,VWS V14.01,2013-02-21 19:27:00,
2013-02-21 13:32:00,38.1,34.0,29.85,ESE,120,9.0,10.0,85,0.25,,,0.35,25.00,VWS V14.01,2013-02-21 19:32:00,
2013-02-21 13:37:00,37.9,34.1,29.84,ESE,112,3.0,10.0,86,0.29,,,0.39,21.00,VWS V14.01,2013-02-21 19:37:00,
2013-02-21 13:42:00,37.7,34.2,29.81,ESE,106,3.0,14.0,87,0.30,,,0.42,14.00,VWS V14.01,2013-02-21 19:42:00,
2013-02-21 13:47:00,37.6,34.1,29.82,East,92,1.0,14.0,87,0.32,,,0.44,23.00,VWS V14.01,2013-02-21 19:47:00,
2013-02-21 13:52:00,37.6,34.4,29.84,East,79,5.0,7.0,88,0.30,,,0.44,23.00,VWS V14.01,2013-02-21 19:52:00,
2013-02-21 13:57:00,37.7,34.5,29.83,ENE,76,4.0,9.0,88,0.30,,,0.44,21.00,VWS V14.01,2013-02-21 19:57:00,
2013-02-21 14:02:00,37.9,35.0,29.82,East,86,6.0,9.0,89,0.25,,,0.45,18.00,VWS V14.01,2013-02-21 20:02:00,
2013-02-21 14:07:00,37.9,35.0,29.82,ENE,75,7.0,11.0,89,0.29,,,0.49,21.00,VWS V14.01,2013-02-21 20:07:00,
2013-02-21 14:12:00,38.0,35.0,29.82,ESE,121,7.0,11.0,89,0.23,,,0.51,30.00,VWS V14.01,2013-02-21 20:12:00,
2013-02-21 14:17:00,38.0,35.0,29.80,ESE,123,10.0,11.0,89,0.28,,,0.56,18.00,VWS V14.01,2013-02-21 20:17:00,
2013-02-21 14:22:00,38.0,35.0,29.79,ESE,121,15.0,15.0,89,0.27,,,0.58,28.00,VWS V14.01,2013-02-21 20:22:00,
2013-02-21 14:27:00,38.0,35.3,29.78,SE,130,14.0,15.0,90,0.27,,,0.58,23.00,VWS V14.01,2013-02-21 20:27:00,
2013-02-21 14:32:00,38.1,35.4,29.79,ESE,114,7.0,13.0,90,0.26,,,0.59,28.00,VWS V14.01,2013-02-21 20:32:00,
2013-02-21 14:37:00,38.2,35.5,29.79,SE,125,7.0,15.0,90,0.26,,,0.59,30.00,VWS V14.01,2013-02-21 20:37:00,
2013-02-21 14:42:00,38.3,35.6,29.80,ESE,109,7.0,10.0,90,0.18,,,0.59,33.00,VWS V14.01,2013-02-21 20:42:00,
2013-02-21 14:47:00,38.4,35.7,29.80,ESE,105,7.0,12.0,90,0.19,,,0.60,35.00,VWS V14.01,2013-02-21 20:47:00,
2013-02-21 14:52:00,38.5,35.8,29.80,ESE,105,9.0,10.0,90,0.16,,,0.60,42.00,VWS V14.01,2013-02-21 20:52:00,
2013-02-21 14:57:00,38.8,36.4,29.79,East,87,3.0,12.0,91,0.21,,,0.65,76.00,VWS V14.01,2013-02-21 20:57:00,
2013-02-21 15:02:00,38.9,36.5,29.80,East,99,6.0,12.0,91,0.20,,,0.65,25.00,VWS V14.01,2013-02-21 21:02:00,
2013-02-21 15:07:00,38.9,36.5,29.80,ESE,119,7.0,12.0,91,0.20,,,0.65,32.00,VWS V14.01,2013-02-21 21:07:00,
2013-02-21 15:12:00,39.1,36.7,29.80,ESE,102,7.0,9.0,91,0.15,,,0.65,35.00,VWS V14.01,2013-02-21 21:12:00,
2013-02-21 15:17:00,39.2,36.8,29.80,ESE,105,7.0,12.0,91,0.15,,,0.65,14.00,VWS V14.01,2013-02-21 21:17:00,
2013-02-21 15:22:00,39.3,36.9,29.79,ESE,117,9.0,10.0,91,0.09,,,0.66,37.00,VWS V14.01,2013-02-21 21:22:00,
2013-02-21 15:27:00,39.5,37.1,29.79,ESE,113,7.0,10.0,91,0.09,,,0.66,21.00,VWS V14.01,2013-02-21 21:27:00,
2013-02-21 15:32:00,39.6,37.2,29.78,ESE,105,10.0,13.0,91,0.08,,,0.67,42.00,VWS V14.01,2013-02-21 21:32:00,
2013-02-21 15:37:00,39.9,37.5,29.78,SE,125,5.0,14.0,91,0.08,,,0.67,30.00,VWS V14.01,2013-02-21 21:37:00,
2013-02-21 15:42:00,40.0,37.6,29.77,ESE,105,9.0,12.0,91,0.08,,,0.67,11.00,VWS V14.01,2013-02-21 21:42:00,
2013-02-21 15:47:00,40.2,37.8,29.77,ESE,115,4.0,13.0,91,0.08,,,0.67,40.00,VWS V14.01,2013-02-21 21:47:00,
2013-02-21 15:52:00,40.3,37.9,29.77,ESE,111,5.0,12.0,91,0.07,,,0.67,35.00,VWS V14.01,2013-02-21 21:52:00,
2013-02-21 15:57:00,40.5,38.4,29.77,ESE,122,4.0,12.0,92,0.07,,,0.67,18.00,VWS V14.01,2013-02-21 21:57:00,
2013-02-21 16:02:00,40.6,38.5,29.76,SE,128,8.0,13.0,92,0.02,,,0.67,23.00,VWS V14.01,2013-02-21 22:02:00,
2013-02-21 16:07:00,40.8,38.7,29.77,SSE,158,7.0,14.0,92,0.02,,,0.67,18.00,VWS V14.01,2013-02-21 22:07:00,
2013-02-21 16:12:00,41.1,39.0,29.77,ESE,123,4.0,15.0,92,0.03,,,0.68,21.00,VWS V14.01,2013-02-21 22:12:00,
2013-02-21 16:17:00,41.4,39.2,29.77,SSE,150,6.0,15.0,92,0.04,,,0.69,42.00,VWS V14.01,2013-02-21 22:17:00,
2013-02-21 16:22:00,41.9,39.8,29.78,ESE,107,7.0,13.0,92,0.03,,,0.69,11.00,VWS V14.01,2013-02-21 22:22:00,
2013-02-21 16:27:00,42.1,40.0,29.78,SE,127,5.0,13.0,92,0.03,,,0.69,9.00,VWS V14.01,2013-02-21 22:27:00,
2013-02-21 16:32:00,42.3,40.2,29.80,SSE,148,2.0,14.0,92,0.03,,,0.69,7.00,VWS V14.01,2013-02-21 22:32:00,
2013-02-21 16:37:00,42.3,39.9,29.80,SE,134,3.0,14.0,91,0.04,,,0.70,5.00,VWS V14.01,2013-02-21 22:37:00,
2013-02-21 16:42:00,42.4,40.2,29.80,ESE,117,4.0,8.0,92,0.03,,,0.70,11.00,VWS V14.01,2013-02-21 22:42:00,
2013-02-21 16:47:00,42.5,40.3,29.79,ESE,120,4.0,9.0,92,0.03,,,0.70,21.00,VWS V14.01,2013-02-21 22:47:00,
2013-02-21 16:52:00,42.8,40.4,29.78,ESE,109,3.0,10.0,91,0.03,,,0.70,14.00,VWS V14.01,2013-02-21 22:52:00,
2013-02-21 16:57:00,42.8,40.4,29.78,SE,125,4.0,11.0,91,0.03,,,0.70,7.00,VWS V14.01,2013-02-21 22:57:00,
2013-02-21 17:02:00,42.9,40.5,29.77,SE,138,5.0,12.0,91,0.03,,,0.70,11.00,VWS V14.01,2013-02-21 23:02:00,
2013-02-21 17:07:00,43.0,40.6,29.75,ESE,117,8.0,13.0,91,0.03,,,0.70,14.00,VWS V14.01,2013-02-21 23:07:00,
2013-02-21 17:12:00,43.1,40.7,29.76,SE,140,9.0,9.0,91,0.02,,,0.70,7.00,VWS V14.01,2013-02-21 23:12:00,
2013-02-21 17:17:00,43.2,40.8,29.76,SE,138,6.0,11.0,91,0.02,,,0.70,7.00,VWS V14.01,2013-02-21 23:17:00,
2013-02-21 17:22:00,43.4,41.0,29.76,ESE,121,8.0,14.0,91,0.02,,,0.71,5.00,VWS V14.01,2013-02-21 23:22:00,
2013-02-21 17:27:00,43.6,41.2,29.77,SE,145,5.0,14.0,91,0.02,,,0.71,5.00,VWS V14.01,2013-02-21 23:27:00,
2013-02-21 17:32:00,43.6,41.2,29.78,SE,140,6.0,9.0,91,0.02,,,0.71,5.00,VWS V14.01,2013-02-21 23:32:00,
2013-02-21 17:37:00,43.7,41.2,29.78,SE,142,5.0,9.0,91,0.02,,,0.71,5.00,VWS V14.01,2013-02-21 23:37:00,
2013-02-21 17:42:00,43.8,41.3,29.77,ESE,113,7.0,9.0,91,0.01,,,0.71,0.00,VWS V14.01,2013-02-21 23:42:00,
2013-02-21 17:47:00,43.8,41.3,29.76,ESE,114,2.0,9.0,91,0.01,,,0.71,0.00,VWS V14.01,2013-02-21 23:47:00,
2013-02-21 17:52:00,43.9,41.5,29.76,ESE,113,3.0,10.0,91,0.01,,,0.71,0.00,VWS V14.01,2013-02-21 23:52:00,
2013-02-21 17:57:00,44.0,41.5,29.76,SE,146,2.0,10.0,91,0.01,,,0.71,0.00,VWS V14.01,2013-02-21 23:57:00,
2013-02-21 18:02:00,44.1,41.7,29.75,ESE,120,2.0,6.0,91,0.01,,,0.71,0.00,VWS V14.01,2013-02-22 00:02:00,
2013-02-21 18:07:00,44.2,41.5,29.75,SE,140,4.0,10.0,90,0.01,,,0.71,0.00,VWS V14.01,2013-02-22 00:07:00,
2013-02-21 18:12:00,44.3,41.6,29.75,ESE,121,5.0,10.0,90,0.01,,,0.71,0.00,VWS V14.01,2013-02-22 00:12:00,
2013-02-21 18:17:00,44.5,41.8,29.76,ESE,121,5.0,11.0,90,0.01,,,0.71,0.00,VWS V14.01,2013-02-22 00:17:00,
2013-02-21 18:22:00,44.6,41.8,29.75,SE,125,4.0,7.0,90,0.00,,,0.71,0.00,VWS V14.01,2013-02-22 00:22:00,
2013-02-21 18:27:00,44.6,41.8,29.75,SE,134,6.0,8.0,90,0.00,,,0.71,0.00,VWS V14.01,2013-02-22 00:27:00,
2013-02-21 18:32:00,44.6,41.8,29.75,ESE,115,4.0,8.0,90,0.00,,,0.71,0.00,VWS V14.01,2013-02-22 00:32:00,
2013-02-21 18:37:00,44.7,42.0,29.76,ESE,122,9.0,10.0,90,0.00,,,0.71,0.00,VWS V14.01,2013-02-22 00:37:00,
2013-02-21 18:42:00,44.9,42.2,29.76,SSE,155,4.0,13.0,90,0.00,,,0.71,0.00,VWS V14.01,2013-02-22 00:42:00,
2013-02-21 18:47:00,44.9,42.2,29.75,SE,132,8.0,13.0,90,0.00,,,0.71,0.00,VWS V14.01,2013-02-22 00:47:00,
2013-02-21 18:52:00,45.0,42.2,29.75,ESE,119,7.0,14.0,90,0.00,,,0.71,0.00,VWS V14.01,2013-02-22 00:52:00,
2013-02-21 18:57:00,45.0,42.2,29.75,ESE,121,7.0,14.0,90,0.00,,,0.71,0.00,VWS V14.01,2013-02-22 00:57:00,
2013-02-21 19:02:00,45.2,42.2,29.75,SE,144,6.0,12.0,89,0.00,,,0.71,0.00,VWS V14.01,2013-02-22 01:02:00,
2013-02-21 19:07:00,45.3,42.3,29.75,SE,128,9.0,12.0,89,0.00,,,0.71,0.00,VWS V14.01,2013-02-22 01:07:00,
2013-02-21 19:12:00,45.4,42.3,29.75,SE,131,10.0,14.0,89,0.00,,,0.71,0.00,VWS V14.01,2013-02-22 01:12:00,
2013-02-21 19:17:00,45.6,42.5,29.75,South,179,10.0,15.0,89,0.00,,,0.71,0.00,VWS V14.01,2013-02-22 01:17:00,
2013-02-21 19:22:00,45.7,42.7,29.74,SE,129,8.0,16.0,89,0.00,,,0.71,0.00,VWS V14.01,2013-02-22 01:22:00,
2013-02-21 19:27:00,45.7,42.7,29.75,SE,141,5.0,19.0,89,0.00,,,0.71,0.00,VWS V14.01,2013-02-22 01:27:00,
2013-02-21 19:32:00,45.8,42.8,29.75,SSE,151,7.0,11.0,89,0.00,,,0.71,0.00,VWS V14.01,2013-02-22 01:32:00,
2013-02-21 19:37:00,45.9,43.1,29.74,SE,146,4.0,12.0,90,0.00,,,0.71,0.00,VWS V14.01,2013-02-22 01:37:00,
2013-02-21 19:42:00,46.1,43.3,29.74,SSE,159,5.0,7.0,90,0.00,,,0.71,0.00,VWS V14.01,2013-02-22 01:42:00,
2013-02-21 19:47:00,46.2,43.4,29.75,SE,144,7.0,11.0,90,0.00,,,0.71,0.00,VWS V14.01,2013-02-22 01:47:00,
2013-02-21 19:52:00,46.4,43.6,29.74,SSE,152,3.0,8.0,90,0.00,,,0.71,0.00,VWS V14.01,2013-02-22 01:52:00,
2013-02-21 19:57:00,46.5,43.7,29.75,SSW,199,2.0,8.0,90,0.00,,,0.71,0.00,VWS V14.01,2013-02-22 01:57:00,
2013-02-21 20:02:00,46.7,44.2,29.78,West,280,10.0,15.0,91,0.00,,,0.71,0.00,VWS V14.01,2013-02-22 02:02:00,
2013-02-21 20:07:00,46.7,44.2,29.77,WNW,285,0.0,16.0,91,0.00,,,0.71,0.00,VWS V14.01,2013-02-22 02:07:00,
2013-02-21 20:12:00,46.6,44.1,29.79,WNW,286,6.0,11.0,91,0.00,,,0.71,0.00,VWS V14.01,2013-02-22 02:12:00,
2013-02-21 20:17:00,46.4,43.9,29.78,West,270,2.0,11.0,91,0.00,,,0.71,0.00,VWS V14.01,2013-02-22 02:17:00,
2013-02-21 20:22:00,46.4,43.9,29.78,West,273,0.0,5.0,91,0.00,,,0.71,0.00,VWS V14.01,2013-02-22 02:22:00,
2013-02-21 20:27:00,46.4,43.9,29.79,West,275,3.0,5.0,91,0.00,,,0.71,0.00,VWS V14.01,2013-02-22 02:27:00,
2013-02-21 20:32:00,46.4,43.9,29.79,WNW,300,3.0,5.0,91,0.00,,,0.71,0.00,VWS V14.01,2013-02-22 02:32:00,
2013-02-21 20:37:00,46.3,43.8,29.79,WNW,300,3.0,5.0,91,0.00,,,0.71,0.00,VWS V14.01,2013-02-22 02:37:00,
2013-02-21 20:42:00,46.2,43.7,29.80,WNW,295,3.0,4.0,91,0.00,,,0.71,0.00,VWS V14.01,2013-02-22 02:42:00,
2013-02-21 20:47:00,46.2,43.7,29.80,WNW,292,1.0,4.0,91,0.00,,,0.71,0.00,VWS V14.01,2013-02-22 02:47:00,
2013-02-21 20:52:00,46.2,43.7,29.79,WNW,292,2.0,2.0,91,0.00,,,0.71,0.00,VWS V14.01,2013-02-22 02:52:00,
2013-02-21 20:57:00,46.0,43.5,29.79,WNW,292,0.0,2.0,91,0.01,,,0.72,0.00,VWS V14.01,2013-02-22 02:57:00,
2013-02-21 21:02:00,46.0,43.5,29.79,WNW,292,3.0,3.0,91,0.01,,,0.72,0.00,VWS V14.01,2013-02-22 03:02:00,
2013-02-21 21:07:00,45.9,43.7,29.81,WNW,292,2.0,3.0,92,0.01,,,0.72,0.00,VWS V14.01,2013-02-22 03:07:00,
2013-02-21 21:12:00,45.9,43.7,29.81,WNW,292,0.0,1.0,92,0.01,,,0.72,0.00,VWS V14.01,2013-02-22 03:12:00,
2013-02-21 21:17:00,45.8,43.6,29.81,WNW,292,0.0,2.0,92,0.01,,,0.72,0.00,VWS V14.01,2013-02-22 03:17:00,
2013-02-21 21:22:00,45.8,43.6,29.82,WNW,292,0.0,1.0,92,0.01,,,0.72,0.00,VWS V14.01,2013-02-22 03:22:00,
2013-02-21 21:27:00,45.8,43.6,29.82,WNW,292,0.0,1.0,92,0.01,,,0.72,0.00,VWS V14.01,2013-02-22 03:27:00,
2013-02-21 21:32:00,45.8,43.6,29.82,WNW,292,0.0,0.0,92,0.01,,,0.72,0.00,VWS V14.01,2013-02-22 03:32:00,
2013-02-21 21:37:00,45.8,43.6,29.82,WNW,292,0.0,2.0,92,0.01,,,0.72,0.00,VWS V14.01,2013-02-22 03:37:00,
2013-02-21 21:42:00,45.8,43.6,29.82,SE,127,2.0,5.0,92,0.01,,,0.72,0.00,VWS V14.01,2013-02-22 03:42:00,
2013-02-21 21:47:00,45.8,43.6,29.83,West,263,0.0,7.0,92,0.01,,,0.72,0.00,VWS V14.01,2013-02-22 03:47:00,
2013-02-21 21:52:00,45.8,43.6,29.82,SSW,202,0.0,3.0,92,0.01,,,0.72,0.00,VWS V14.01,2013-02-22 03:52:00,
2013-02-21 21:57:00,45.8,43.6,29.83,West,281,5.0,5.0,92,0.01,,,0.72,0.00,VWS V14.01,2013-02-22 03:57:00,
2013-02-21 22:02:00,45.9,44.0,29.84,West,259,4.0,5.0,93,0.00,,,0.72,0.00,VWS V14.01,2013-02-22 04:02:00,
2013-02-21 22:07:00,46.0,44.1,29.84,West,269,2.0,8.0,93,0.00,,,0.72,0.00,VWS V14.01,2013-02-22 04:07:00,
2013-02-21 22:12:00,46.0,44.1,29.85,West,281,0.0,7.0,93,0.00,,,0.72,0.00,VWS V14.01,2013-02-22 04:12:00,
2013-02-21 22:17:00,46.0,44.1,29.85,West,279,1.0,7.0,93,0.00,,,0.72,0.00,VWS V14.01,2013-02-22 04:17:00,
2013-02-21 22:22:00,46.0,44.1,29.84,West,279,3.0,3.0,93,0.00,,,0.72,0.00,VWS V14.01,2013-02-22 04:22:00,
2013-02-21 22:27:00,45.9,44.0,29.85,West,263,0.0,3.0,93,0.00,,,0.72,0.00,VWS V14.01,2013-02-22 04:27:00,
2013-02-21 22:32:00,45.9,44.0,29.85,West,260,0.0,3.0,93,0.00,,,0.72,0.00,VWS V14.01,2013-02-22 04:32:00,
2013-02-21 22:37:00,45.9,44.0,29.85,West,267,3.0,4.0,93,0.00,,,0.72,0.00,VWS V14.01,2013-02-22 04:37:00,
2013-02-21 22:42:00,45.9,44.0,29.85,West,271,4.0,4.0,93,0.00,,,0.72,0.00,VWS V14.01,2013-02-22 04:42:00,
2013-02-21 22:47:00,45.9,44.0,29.85,West,278,2.0,6.0,93,0.00,,,0.72,0.00,VWS V14.01,2013-02-22 04:47:00,
2013-02-21 22:52:00,45.8,43.9,29.85,WSW,257,3.0,8.0,93,0.00,,,0.72,0.00,VWS V14.01,2013-02-22 04:52:00,
2013-02-21 22:57:00,45.8,43.9,29.85,West,272,1.0,9.0,93,0.00,,,0.72,0.00,VWS V14.01,2013-02-22 04:57:00,
2013-02-21 23:00:00,45.7,43.8,29.85,West,265,6.0,9.0,93,0.00,,,0.72,0.00,VWS V14.01,2013-02-22 05:00:00,
2013-02-21 23:05:00,45.6,43.7,29.85,West,277,1.0,6.0,93,0.00,,,0.72,0.00,VWS V14.01,2013-02-22 05:05:00,
2013-02-21 23:10:00,45.5,43.6,29.85,WSW,238,3.0,6.0,93,0.00,,,0.72,0.00,VWS V14.01,2013-02-22 05:10:00,
2013-02-21 23:15:00,45.4,43.5,29.85,West,265,5.0,6.0,93,0.00,,,0.72,0.00,VWS V14.01,2013-02-22 05:15:00,
2013-02-21 23:20:00,45.2,43.3,29.86,SW,234,2.0,4.0,93,0.00,,,0.72,0.00,VWS V14.01,2013-02-22 05:20:00,
2013-02-21 23:25:00,45.0,43.1,29.87,WSW,252,6.0,11.0,93,0.00,,,0.72,0.00,VWS V14.01,2013-02-22 05:25:00,
2013-02-21 23:30:00,44.8,42.9,29.87,WNW,284,5.0,7.0,93,0.00,,,0.72,0.00,VWS V14.01,2013-02-22 05:30:00,
2013-02-21 23:35:00,44.6,42.7,29.87,West,273,4.0,10.0,93,0.00,,,0.72,0.00,VWS V14.01,2013-02-22 05:35:00,
2013-02-21 23:40:00,44.3,42.4,29.87,West,267,6.0,7.0,93,0.00,,,0.72,0.00,VWS V14.01,2013-02-22 05:40:00,
2013-02-21 23:45:00,43.9,42.0,29.87,WNW,291,7.0,10.0,93,0.00,,,0.72,0.00,VWS V14.01,2013-02-22 05:45:00,
2013-02-21 23:50:00,43.6,41.7,29.87,West,270,7.0,8.0,93,0.00,,,0.72,0.00,VWS V14.01,2013-02-22 05:50:00,
2013-02-21 23:55:00,43.3,41.4,29.87,West,281,4.0,11.0,93,0.00,,,0.72,0.00,VWS V14.01,2013-02-22 05:55:00,